Theta_e
314 317 319 322 325 323 323 322 320 321 321 319 318 319 320 319 320 321 323 327 330 336 342 343 343 342 342 342 340 337 338 339 339 339 340 341 340 335 332 332 332 331 332 332 331 329 324 328 334
316 318 320 322 322 320 321 321 321 321 319 318 318 319 319 320 319 322 325 327 330 336 342 345 342 344 343 341 339 337 339 340 339 338 338 339 337 332 334 333 332 331 331 330 328 322 321 323 324
317 316 323 323 321 319 320 320 320 319 318 319 319 319 320 320 321 322 324 329 333 337 342 345 342 343 342 341 339 338 339 339 338 337 335 334 332 333 335 335 332 331 330 327 328 321 318 317 320
318 320 318 320 320 318 318 317 317 320 318 318 318 319 317 318 322 324 325 330 335 337 341 343 341 342 342 339 341 340 340 339 337 335 334 332 333 336 335 332 331 330 329 327 327 323 319 314 312
315 319 321 320 320 318 316 317 316 319 319 319 318 318 318 317 322 326 328 332 334 337 340 342 342 342 342 340 341 340 340 339 335 336 335 335 333 335 334 332 331 329 329 327 326 322 317 312 306
320 318 321 320 319 317 317 316 317 318 316 318 317 318 318 315 318 325 328 331 333 336 338 340 339 341 341 340 341 340 339 339 336 336 335 336 334 332 330 329 328 328 326 326 325 322 315 306 300
320 318 321 320 319 318 318 315 316 316 316 317 316 317 317 315 316 323 325 326 333 335 338 339 340 339 341 341 341 339 338 338 337 337 335 336 334 333 331 329 327 326 327 325 323 322 317 303 300
317 318 318 319 319 319 317 315 315 316 316 314 315 316 317 313 314 322 321 319 319 327 331 336 338 337 339 342 340 340 339 339 337 337 336 336 336 334 332 330 329 326 325 323 322 321 317 305 299
312 316 317 317 318 318 317 317 315 314 315 315 313 313 308 308 312 314 314 312 312 312 318 327 332 337 340 337 340 339 339 339 338 337 336 337 337 334 333 331 328 327 326 325 324 322 318 310 302
316 316 315 314 316 318 317 316 316 316 316 315 313 309 308 308 309 310 310 310 309 308 308 310 318 330 334 335 335 336 338 339 339 338 337 336 335 333 332 330 328 328 326 324 324 323 322 316 308
315 315 312 314 315 316 317 316 315 316 316 315 314 310 307 307 307 307 307 306 306 307 308 308 308 315 329 333 334 334 335 335 338 337 336 335 333 333 333 330 329 328 326 325 323 323 321 321 314
317 315 314 316 315 315 317 315 315 315 314 309 308 306 306 306 305 305 305 305 306 307 308 309 312 310 313 330 333 333 333 332 334 333 333 332 332 332 332 331 329 327 327 325 324 323 322 321 316
318 316 315 315 315 314 312 315 315 312 308 306 306 305 305 305 304 303 303 304 305 306 308 311 314 315 312 322 331 332 332 332 332 333 333 331 331 332 331 331 328 328 327 324 324 323 322 321 318
314 314 314 314 314 313 314 313 313 308 307 307 306 305 304 303 302 303 303 304 304 305 308 311 316 316 314 318 329 332 333 332 330 329 329 330 330 329 329 328 328 327 326 324 324 322 320 318 318
313 315 315 314 312 313 312 313 313 308 307 307 306 304 303 302 301 301 300 302 302 305 310 315 317 320 319 325 328 329 330 329 327 326 327 327 327 327 326 325 325 324 324 324 323 322 320 318 316
315 314 319 314 312 311 313 319 310 307 308 308 306 304 303 301 300 299 299 300 302 307 315 317 319 320 321 324 326 326 326 325 324 324 324 325 325 324 325 324 323 322 321 320 320 319 318 316 316
315 321 317 316 312 313 314 318 310 306 308 307 305 303 302 301 300 299 298 299 301 303 310 314 315 318 320 322 323 322 320 321 319 320 320 320 320 320 320 319 318 317 318 318 317 317 316 315 315
321 317 315 317 314 313 315 316 309 307 307 307 304 303 302 301 299 297 297 298 299 301 308 310 311 310 314 316 314 312 310 307 307 306 308 313 313 313 313 313 312 311 312 312 312 312 311 312 310
316 315 317 314 311 314 316 316 315 307 307 306 304 303 302 300 297 297 296 297 299 301 306 308 310 308 309 309 307 304 301 297 296 298 300 302 303 305 304 302 303 304 304 303 305 306 306 306 304
313 316 317 313 311 312 315 315 314 307 307 306 304 303 302 300 299 297 296 296 297 298 299 301 302 303 303 303 302 299 296 293 292 293 295 297 298 298 298 298 298 298 299 299 299 301 304 304 302
313 315 316 316 313 311 312 317 313 306 304 303 302 302 301 301 299 297 296 295 295 294 295 298 301 301 301 301 299 296 294 293 292 290 290 290 291 291 291 291 291 291 292 293 294 296 298 300 300
315 311 312 312 314 320 310 323 315 309 306 303 302 301 301 299 297 295 294 293 293 292 292 294 296 299 299 298 296 296 294 291 289 288 288 287 287 287 287 287 287 287 287 287 288 288 291 294 295
317 311 312 313 315 315 314 317 319 307 309 306 303 302 301 299 297 295 293 291 290 291 291 291 294 295 295 294 293 291 290 288 288 288 287 286 286 286 286 286 286 286 286 285 286 286 287 288 288
309 311 310 310 313 319 318 317 319 312 311 308 304 302 300 298 295 293 291 290 289 289 289 289 289 289 290 291 290 290 289 288 288 288 288 287 286 285 285 285 285 285 284 284 284 284 284 285 286
311 315 321 321 320 321 310 314 318 311 307 307 304 302 300 297 295 293 291 290 289 288 288 288 288 287 288 288 288 288 288 288 288 288 287 287 286 285 284 284 284 283 283 283 283 283 283 283 284
312 318 324 327 322 319 310 316 315 308 305 304 305 302 300 297 295 293 291 290 289 288 288 287 287 287 287 287 287 287 287 287 286 286 286 285 284 283 283 282 282 282 282 282 282 282 282 282 283
312 314 314 314 309 319 317 313 311 306 305 303 303 301 300 298 295 293 291 290 289 288 287 287 287 286 286 286 287 287 286 286 285 285 284 284 283 282 282 282 282 282 281 281 281 281 281 281 282
311 312 316 316 324 325 316 314 316 309 308 303 302 301 300 298 296 294 291 289 288 288 287 287 287 286 286 286 286 286 286 286 285 285 284 283 283 282 281 281 281 281 281 281 280 280 280 280 281
312 313 313 316 317 322 320 314 309 311 310 305 304 302 301 298 297 295 293 290 288 287 287 287 286 286 286 286 286 286 286 285 285 285 284 283 282 281 281 281 281 280 280 279 279 279 279 279 280
313 314 314 320 315 312 313 317 306 307 307 307 305 303 302 299 297 296 294 291 289 287 287 287 286 286 287 286 286 286 286 286 285 285 285 284 282 281 281 280 280 280 279 279 278 278 278 278 278
Wind_Speed
7 5 2 2 3 1 4 4 2 2 2 2 1 2 7 5 5 4 2 6 0 10 17 19 17 16 13 11 11 10 9 11 9 10 10 11 9 7 8 9 9 9 12 11 11 11 9 8 7
3 2 1 0 2 5 5 2 3 3 3 0 2 1 2 8 3 4 2 7 1 12 17 16 19 15 14 12 12 11 9 9 9 9 9 8 6 7 8 7 8 8 9 9 9 8 8 7 6
1 2 2 1 1 4 5 2 2 2 1 1 1 2 2 4 5 3 4 6 4 12 16 16 21 17 14 13 10 9 8 7 7 7 7 7 6 6 7 6 4 5 7 9 6 6 6 5 5
1 2 3 1 7 3 3 2 0 2 2 0 1 5 4 5 4 7 3 7 5 7 13 15 20 19 17 12 10 9 7 7 6 6 6 6 7 6 6 5 3 6 8 8 7 6 4 5 3
3 1 2 4 4 3 1 1 1 2 1 2 1 4 4 5 5 7 6 5 5 7 12 12 18 15 15 13 12 10 8 6 5 3 5 6 6 5 3 2 4 5 6 7 7 8 6 5 3
1 2 3 6 5 3 2 1 2 2 1 3 1 4 4 7 7 7 7 5 5 5 8 11 17 16 13 13 13 11 9 7 6 6 5 6 2 1 1 2 3 4 5 6 6 8 8 7 5
1 1 2 4 7 5 3 1 3 3 3 4 2 4 5 12 12 6 7 8 7 5 4 4 9 15 16 15 14 12 10 9 8 8 5 8 4 3 0 2 5 6 6 6 6 9 9 7 5
2 1 5 4 8 5 3 2 1 2 3 1 3 3 3 9 11 5 7 9 9 6 4 1 4 12 15 12 17 15 13 12 10 10 7 10 6 3 2 2 4 5 4 6 9 10 12 9 6
1 2 4 6 6 5 2 4 2 1 2 2 3 5 6 9 5 4 4 7 6 6 2 2 4 8 10 14 13 17 17 14 12 11 10 10 7 4 1 2 3 3 6 8 10 11 12 11 6
1 2 3 2 3 6 3 1 1 3 1 3 5 9 9 8 9 9 9 9 9 9 7 5 5 9 9 11 14 15 13 12 11 11 11 11 8 6 5 4 5 3 5 9 11 13 13 11 8
1 1 3 3 4 2 3 2 1 2 2 4 3 5 8 10 11 11 10 10 11 10 9 9 6 8 12 11 11 12 12 13 8 9 8 7 7 8 8 7 6 5 4 5 8 11 12 12 9
2 1 2 2 4 3 2 2 2 2 4 5 8 7 7 10 10 10 10 10 12 11 11 10 8 6 10 13 12 11 9 8 8 4 6 9 10 9 9 7 8 7 6 5 7 7 11 9 9
3 2 3 2 5 4 1 4 0 2 6 8 8 8 8 8 8 8 8 9 11 11 12 12 10 6 5 12 10 9 7 4 3 5 7 5 7 10 11 10 9 8 7 7 7 6 6 9 9
2 2 4 4 3 4 5 2 5 4 6 6 5 7 7 8 9 7 11 12 13 12 13 12 12 8 1 9 10 9 10 10 7 4 6 5 2 3 6 9 8 6 8 8 7 5 3 5 9
1 4 6 4 2 4 6 4 6 4 5 4 4 5 6 8 9 10 10 10 11 11 11 13 16 12 14 15 17 18 16 10 10 10 8 7 6 4 2 1 3 6 8 9 8 5 5 4 5
2 3 4 3 2 2 6 4 7 1 7 2 2 3 4 7 8 9 9 9 10 9 12 15 18 18 20 22 24 23 22 20 20 19 17 13 10 9 7 5 2 3 4 5 5 4 4 4 6
2 6 6 2 1 2 6 1 6 3 5 3 2 3 4 5 7 8 9 9 10 10 12 15 19 24 28 31 31 30 28 26 23 21 20 18 16 16 15 15 13 10 8 6 4 3 4 7 8
7 6 5 6 3 3 6 9 7 2 2 3 4 4 5 5 7 7 8 9 9 11 16 18 22 22 27 31 32 31 28 25 22 20 20 18 17 16 16 15 14 13 14 12 10 8 6 8 8
2 4 7 3 2 4 11 13 8 4 5 6 6 6 6 6 5 6 7 8 10 12 15 17 19 17 14 15 17 18 20 19 20 21 20 19 18 16 15 14 14 13 15 15 14 9 11 11 14
7 9 13 4 3 4 9 14 8 6 4 5 7 7 7 8 8 9 10 11 12 13 14 14 15 14 14 15 16 16 18 20 21 22 24 23 21 21 20 18 17 16 14 16 16 16 10 9 14
12 14 11 9 3 4 5 14 11 4 5 7 7 7 7 9 10 9 11 13 13 14 13 16 17 18 18 20 22 23 22 19 19 19 22 24 23 23 22 22 20 20 19 18 18 17 16 12 12
15 13 9 7 5 9 3 6 5 8 10 11 11 11 10 9 7 9 10 11 11 12 13 16 16 16 15 13 16 18 19 21 17 18 21 22 22 22 22 22 22 21 20 20 18 18 16 15 14
6 6 10 7 11 5 8 6 3 6 12 13 15 14 12 10 9 8 8 9 9 10 13 16 20 21 20 19 20 21 23 19 16 16 19 20 20 20 20 20 20 20 19 19 19 18 17 14 12
14 9 5 3 3 8 15 13 8 7 10 17 18 17 16 14 11 9 7 8 9 10 12 13 18 19 20 21 21 23 22 17 15 13 15 14 14 15 17 17 17 17 17 17 16 14 15 13 11
6 10 4 5 6 7 3 9 12 6 8 16 24 21 18 15 13 11 11 10 10 10 12 12 14 18 19 21 22 21 19 17 15 13 13 11 10 12 14 14 14 15 14 14 13 13 12 12 11
16 18 7 7 6 3 2 8 5 2 6 2 17 19 19 17 14 13 16 14 14 12 12 13 16 19 18 19 19 17 16 15 15 14 13 10 10 11 11 11 12 12 12 12 13 12 13 12 11
10 11 4 5 1 2 6 5 6 6 6 7 15 19 20 18 17 16 18 15 14 13 13 13 15 17 18 17 16 16 15 15 15 14 13 11 9 8 9 9 10 11 11 12 13 13 13 13 12
6 12 5 5 5 6 4 5 8 10 14 10 15 19 19 18 17 16 19 18 17 15 13 13 14 17 18 17 15 14 15 14 13 12 11 9 7 7 7 8 9 10 11 12 13 12 11 12 12
6 7 5 3 4 4 3 5 5 10 17 19 19 21 22 20 18 16 21 20 17 16 17 17 17 18 18 16 16 16 14 13 11 10 9 6 5 5 6 9 11 11 12 13 13 11 10 12 13
11 8 15 7 6 4 2 5 4 4 10 16 17 18 20 19 19 20 21 21 20 20 19 19 19 18 18 17 17 15 14 12 10 8 7 4 2 4 7 9 10 12 13 14 14 12 12 13 15
Wind_Direction
334 336 347 248 213 150 104 97 348 121 144 49 48 329 54 32 18 49 31 174 68 169 170 173 174 172 174 176 162 155 142 132 140 129 126 127 125 104 88 77 67 62 67 63 54 59 69 74 75
342 350 20 211 211 145 108 92 117 67 58 65 145 190 91 69 47 86 106 162 180 172 170 172 169 174 182 186 171 163 155 149 146 140 141 137 128 115 104 84 66 56 52 48 53 56 60 61 65
348 56 263 66 76 112 120 139 95 80 63 245 151 2 25 42 57 50 17 172 126 164 173 177 172 175 184 187 175 175 169 165 155 149 148 146 136 117 123 111 78 44 32 24 49 53 47 45 50
278 171 130 250 112 88 82 105 318 171 142 60 3 106 111 25 15 2 44 136 130 164 180 188 180 185 189 182 184 192 204 180 167 158 146 133 143 143 132 133 46 8 11 21 39 42 34 26 26
31 231 138 125 112 125 200 301 262 172 104 97 311 96 76 51 28 46 92 95 109 151 175 188 193 196 194 187 189 194 192 200 178 162 178 137 136 133 122 66 17 22 22 19 41 23 16 13 11
166 281 189 175 145 161 193 282 226 174 109 111 120 121 78 44 40 37 62 68 80 141 174 191 201 207 207 196 198 204 200 210 199 179 201 168 114 126 103 31 0 346 13 39 28 17 5 3 16
72 248 137 151 153 176 154 267 211 107 142 85 21 147 119 41 24 46 63 69 73 91 136 182 207 213 212 206 204 218 216 222 220 196 233 202 207 209 55 49 40 45 44 30 4 11 2 13 23
66 105 150 182 185 168 133 195 52 26 89 8 330 152 150 358 355 60 79 71 68 78 75 116 220 215 218 222 214 215 223 231 229 215 230 206 230 216 200 56 38 40 36 8 360 1 1 7 17
245 202 186 180 177 150 145 184 117 2 259 51 42 53 356 344 3 63 69 45 44 35 33 218 220 219 229 224 224 224 226 230 230 225 226 219 210 178 291 279 341 360 3 355 360 2 4 6 2
258 241 177 151 153 152 149 253 38 225 135 146 120 72 37 36 45 50 35 16 12 3 351 315 252 226 217 222 225 225 233 234 226 220 221 220 217 241 242 264 289 314 350 339 344 349 351 358 355
148 264 155 161 164 174 160 256 180 262 173 51 6 64 40 45 46 46 36 17 356 348 348 342 300 246 221 215 216 219 228 232 243 239 232 226 225 233 234 245 267 278 300 321 339 341 335 334 345
210 180 202 133 162 168 204 125 201 260 59 59 76 71 51 42 36 27 17 5 355 352 346 345 333 281 232 206 206 207 210 219 241 261 252 260 261 252 249 243 248 249 265 291 309 325 337 329 334
219 185 209 217 178 236 236 232 155 92 101 100 93 72 54 45 34 26 15 7 0 357 352 348 344 324 245 195 197 195 194 187 223 244 242 242 250 254 255 249 240 253 254 266 273 299 324 336 334
112 253 263 267 242 213 222 148 182 127 141 99 80 63 52 40 25 22 18 9 5 359 -0 4 14 5 222 152 165 157 146 129 114 92 65 59 358 293 262 242 240 257 254 265 273 283 310 340 345
66 286 285 229 213 217 181 172 159 123 164 114 77 56 41 30 29 26 13 9 4 10 23 48 54 66 98 131 141 128 118 115 98 87 82 58 44 29 354 238 199 245 262 259 260 262 270 303 330
248 243 256 125 165 135 203 203 155 354 215 175 90 69 51 39 27 20 13 14 20 41 68 83 92 101 115 120 116 113 110 109 101 93 87 85 76 64 52 23 5 315 278 272 259 258 295 319 319
208 257 222 255 183 168 224 164 154 16 184 161 133 101 73 55 40 29 21 22 27 45 69 87 95 106 115 115 113 110 104 100 93 91 87 87 87 85 83 76 70 61 64 39 8 356 340 326 326
207 217 227 234 168 215 226 248 164 91 177 151 137 116 98 80 44 32 36 42 51 62 79 89 99 100 106 108 105 99 92 84 79 73 72 78 76 79 77 80 76 71 74 72 62 49 24 25 343
177 210 238 173 145 229 243 254 199 179 171 168 160 144 128 112 98 82 79 81 85 84 93 98 103 102 102 100 96 90 82 76 71 68 66 65 68 68 69 63 55 53 49 42 40 31 23 14 360
216 237 243 267 193 233 253 256 238 196 201 199 171 156 145 131 110 95 90 87 82 82 83 85 87 90 100 105 106 95 88 78 77 73 70 67 65 62 60 60 56 53 47 42 35 30 22 23 15
225 225 233 255 159 231 272 265 221 187 175 165 177 152 151 140 130 113 93 82 83 80 85 94 97 100 102 104 106 104 98 90 80 70 68 66 65 63 63 61 57 54 51 46 39 34 35 25 23
235 216 223 212 220 257 218 280 207 181 184 190 179 178 166 156 141 120 104 92 88 87 91 95 99 102 101 106 113 111 106 100 91 88 85 75 70 65 63 61 58 58 54 50 44 40 38 33 27
255 156 201 204 225 259 199 257 193 173 207 195 187 181 173 167 154 134 110 91 85 89 95 102 106 107 109 110 109 105 102 103 101 95 87 80 72 69 64 61 59 57 54 49 45 39 38 39 37
134 108 78 94 191 248 227 217 203 198 215 183 187 185 177 172 163 149 134 125 112 109 109 110 111 108 110 109 105 105 107 109 108 102 92 85 78 70 64 59 55 54 47 40 37 32 29 27 23
185 160 194 221 208 245 154 207 250 197 183 191 182 182 178 172 170 165 163 156 144 134 127 120 117 109 111 113 112 114 113 113 108 102 95 91 81 69 59 55 48 44 37 30 25 20 15 11 4
196 190 191 213 205 183 134 225 233 96 126 158 183 175 172 176 176 177 176 172 166 160 149 137 130 122 120 119 120 120 119 115 108 102 96 89 82 70 61 50 41 32 24 17 10 5 1 355 347
186 214 177 107 1 233 203 235 237 155 169 166 175 176 180 179 180 181 182 181 176 172 164 151 140 134 136 139 135 131 126 119 115 110 104 98 89 74 54 38 28 19 10 6 3 355 350 347 341
210 152 182 227 211 234 214 248 222 201 196 183 182 188 185 183 183 182 184 183 184 180 168 163 159 154 155 150 147 141 135 129 123 114 107 101 86 65 41 22 13 4 1 356 354 348 343 340 335
162 190 206 203 203 225 243 233 212 193 186 186 194 193 187 185 184 184 188 189 187 182 181 178 173 170 169 164 160 154 149 142 133 126 117 108 81 52 22 11 1 356 354 349 347 343 337 335 328
233 220 193 204 189 239 284 247 162 190 188 188 188 190 189 188 189 190 187 187 188 189 188 188 186 183 181 175 172 168 166 158 152 145 138 115 64 19 4 356 351 348 345 343 340 339 333 328 325